contact:dominique.lefevre@mio.osupytheas.fr, maurice.libes@osupytheas.fr, didier.mallarino@osupytheas.fr
Project:EMSO http://www.emso-fr.org/EMSO-France
Depth: 2436.0 m
Title:EMSO Ligure Ouest : Data MII capteur MICROCAT
DateTime_Computer,Latitude,Longitude,Temperature,Conductivity,Pressure,DateTime_Instrument
DateTime_Computer,Latitude,Longitude,degC,S m-1,dbar,DateTime_Instrument
2020-10-15T00:01:55Z,42.805,6.029,13.2979,4.59980,2470.063,2020-10-15T02:02:49Z
2020-10-15T00:04:58Z,42.805,6.029,13.2978,4.59979,2470.063,2020-10-15T02:05:52Z
2020-10-15T00:08:01Z,42.805,6.029,13.2980,4.59979,2470.087,2020-10-15T02:08:55Z
2020-10-15T00:11:05Z,42.805,6.029,13.2976,4.59980,2470.087,2020-10-15T02:11:59Z
2020-10-15T00:14:08Z,42.805,6.029,13.2977,4.59981,2470.1,2020-10-15T02:15:02Z
2020-10-15T00:17:11Z,42.805,6.029,13.2978,4.59980,2470.04,2020-10-15T02:18:05Z
2020-10-15T00:20:14Z,42.805,6.029,13.2979,4.59979,2470.087,2020-10-15T02:21:08Z
2020-10-15T00:23:17Z,42.805,6.029,13.2978,4.59983,2470.063,2020-10-15T02:24:11Z
2020-10-15T00:26:20Z,42.805,6.029,13.2979,4.59979,2470.077,2020-10-15T02:27:14Z
2020-10-15T00:29:23Z,42.805,6.029,13.2979,4.59979,2470.063,2020-10-15T02:30:17Z
2020-10-15T00:32:26Z,42.805,6.029,13.2977,4.59978,2470.087,2020-10-15T02:33:21Z
2020-10-15T00:35:30Z,42.805,6.029,13.2979,4.59979,2470.053,2020-10-15T02:36:24Z
2020-10-15T00:38:33Z,42.805,6.029,13.2980,4.59981,2470.087,2020-10-15T02:39:27Z
2020-10-15T00:41:36Z,42.805,6.029,13.2975,4.59979,2470.063,2020-10-15T02:42:30Z
2020-10-15T00:44:39Z,42.805,6.029,13.2979,4.59979,2470.077,2020-10-15T02:45:33Z
2020-10-15T00:47:42Z,42.805,6.029,13.2982,4.59980,2470.063,2020-10-15T02:48:36Z
2020-10-15T00:50:45Z,42.805,6.029,13.2973,4.59979,2470.063,2020-10-15T02:51:39Z
2020-10-15T00:53:48Z,42.805,6.029,13.2975,4.59979,2470.077,2020-10-15T02:54:42Z
2020-10-15T00:56:51Z,42.805,6.029,13.2977,4.59978,2470.063,2020-10-15T02:57:46Z
2020-10-15T00:59:55Z,42.805,6.029,13.2976,4.59978,2470.077,2020-10-15T03:00:49Z
2020-10-15T01:02:58Z,42.805,6.029,13.2976,4.59979,2470.04,2020-10-15T03:03:52Z
2020-10-15T01:06:01Z,42.805,6.029,13.2979,4.59980,2470.087,2020-10-15T03:06:55Z
2020-10-15T01:09:04Z,42.805,6.029,13.2979,4.59979,2470.087,2020-10-15T03:09:58Z
2020-10-15T01:12:07Z,42.805,6.029,13.2982,4.59981,2470.063,2020-10-15T03:13:01Z
2020-10-15T01:15:10Z,42.805,6.029,13.2979,4.59980,2470.063,2020-10-15T03:16:04Z
2020-10-15T01:18:13Z,42.805,6.029,13.2977,4.59980,2470.077,2020-10-15T03:19:07Z
2020-10-15T01:21:16Z,42.805,6.029,13.2977,4.59980,2470.077,2020-10-15T03:22:10Z
2020-10-15T01:24:20Z,42.805,6.029,13.2976,4.59978,2470.087,2020-10-15T03:25:14Z
2020-10-15T01:27:23Z,42.805,6.029,13.2982,4.59979,2470.1,2020-10-15T03:28:17Z
2020-10-15T01:30:26Z,42.805,6.029,13.2976,4.59978,2470.087,2020-10-15T03:31:20Z
2020-10-15T01:33:29Z,42.805,6.029,13.2977,4.59979,2470.063,2020-10-15T03:34:23Z
2020-10-15T01:36:32Z,42.805,6.029,13.2977,4.59978,2470.087,2020-10-15T03:37:26Z
2020-10-15T01:39:35Z,42.805,6.029,13.2977,4.59978,2470.077,2020-10-15T03:40:29Z
2020-10-15T01:42:38Z,42.805,6.029,13.2977,4.59979,2470.087,2020-10-15T03:43:32Z
2020-10-15T01:45:41Z,42.805,6.029,13.2977,4.59978,2470.077,2020-10-15T03:46:35Z
2020-10-15T01:48:45Z,42.805,6.029,13.2976,4.59978,2470.087,2020-10-15T03:49:39Z
2020-10-15T01:51:48Z,42.805,6.029,13.2976,4.59979,2470.063,2020-10-15T03:52:42Z
2020-10-15T01:54:51Z,42.805,6.029,13.2980,4.59981,2470.1,2020-10-15T03:55:45Z
2020-10-15T01:57:54Z,42.805,6.029,13.2982,4.59978,2470.1,2020-10-15T03:58:48Z
2020-10-15T02:00:57Z,42.805,6.029,13.2979,4.59979,2470.053,2020-10-15T04:01:51Z
2020-10-15T02:04:00Z,42.805,6.029,13.2979,4.59978,2470.11,2020-10-15T04:04:54Z
2020-10-15T02:07:03Z,42.805,6.029,13.2978,4.59978,2470.124,2020-10-15T04:07:57Z
2020-10-15T02:10:06Z,42.805,6.029,13.2979,4.59978,2470.063,2020-10-15T04:11:00Z
2020-10-15T02:13:09Z,42.805,6.029,13.2978,4.59977,2470.124,2020-10-15T04:14:04Z
2020-10-15T02:16:13Z,42.805,6.029,13.2980,4.59978,2470.1,2020-10-15T04:17:07Z
2020-10-15T02:19:16Z,42.805,6.029,13.2976,4.59977,2470.11,2020-10-15T04:20:10Z
2020-10-15T02:22:19Z,42.805,6.029,13.2975,4.59977,2470.11,2020-10-15T04:23:13Z
2020-10-15T02:25:22Z,42.805,6.029,13.2975,4.59978,2470.11,2020-10-15T04:26:16Z
2020-10-15T02:28:25Z,42.805,6.029,13.2980,4.59978,2470.133,2020-10-15T04:29:19Z
2020-10-15T02:31:28Z,42.805,6.029,13.2974,4.59978,2470.087,2020-10-15T04:32:22Z
2020-10-15T02:34:31Z,42.805,6.029,13.2977,4.59978,2470.133,2020-10-15T04:35:25Z
2020-10-15T02:37:34Z,42.805,6.029,13.2976,4.59978,2470.11,2020-10-15T04:38:28Z
2020-10-15T02:40:38Z,42.805,6.029,13.2975,4.59981,2470.11,2020-10-15T04:41:32Z
2020-10-15T02:43:41Z,42.805,6.029,13.2974,4.59978,2470.147,2020-10-15T04:44:35Z
2020-10-15T02:46:44Z,42.805,6.029,13.2974,4.59978,2470.1,2020-10-15T04:47:38Z
2020-10-15T02:49:47Z,42.805,6.029,13.2977,4.59978,2470.11,2020-10-15T04:50:41Z
2020-10-15T02:52:50Z,42.805,6.029,13.2975,4.59978,2470.11,2020-10-15T04:53:44Z
2020-10-15T02:55:53Z,42.805,6.029,13.2976,4.59976,2470.124,2020-10-15T04:56:47Z
2020-10-15T02:58:56Z,42.805,6.029,13.2976,4.59978,2470.124,2020-10-15T04:59:50Z
2020-10-15T03:01:59Z,42.805,6.029,13.2976,4.59976,2470.133,2020-10-15T05:02:54Z
2020-10-15T03:05:03Z,42.805,6.029,13.2979,4.59978,2470.11,2020-10-15T05:05:57Z
2020-10-15T03:08:06Z,42.805,6.029,13.2976,4.59976,2470.133,2020-10-15T05:09:00Z
2020-10-15T03:11:09Z,42.805,6.029,13.2976,4.59976,2470.171,2020-10-15T05:12:03Z
2020-10-15T03:14:12Z,42.805,6.029,13.2978,4.59978,2470.133,2020-10-15T05:15:06Z
2020-10-15T03:17:15Z,42.805,6.029,13.2979,4.59978,2470.147,2020-10-15T05:18:09Z
2020-10-15T03:20:18Z,42.805,6.029,13.2979,4.59978,2470.156,2020-10-15T05:21:12Z
2020-10-15T03:23:21Z,42.805,6.029,13.2972,4.59978,2470.194,2020-10-15T05:24:15Z
2020-10-15T03:26:24Z,42.805,6.029,13.2974,4.59978,2470.18,2020-10-15T05:27:18Z
2020-10-15T03:29:28Z,42.805,6.029,13.2972,4.59978,2470.18,2020-10-15T05:30:22Z
2020-10-15T03:32:31Z,42.805,6.029,13.2979,4.59977,2470.18,2020-10-15T05:33:25Z
2020-10-15T03:35:34Z,42.805,6.029,13.2976,4.59978,2470.203,2020-10-15T05:36:28Z
2020-10-15T03:38:37Z,42.805,6.029,13.2977,4.59978,2470.227,2020-10-15T05:39:31Z
2020-10-15T03:41:40Z,42.805,6.029,13.2976,4.59978,2470.18,2020-10-15T05:42:34Z
2020-10-15T03:44:43Z,42.805,6.029,13.2977,4.59978,2470.217,2020-10-15T05:45:37Z
2020-10-15T03:47:46Z,42.805,6.029,13.2975,4.59978,2470.194,2020-10-15T05:48:40Z
2020-10-15T03:50:49Z,42.805,6.029,13.2976,4.59978,2470.217,2020-10-15T05:51:44Z
2020-10-15T03:53:53Z,42.805,6.029,13.2976,4.59979,2470.217,2020-10-15T05:54:47Z
2020-10-15T03:56:56Z,42.805,6.029,13.2974,4.59978,2470.189,2020-10-15T05:57:50Z
2020-10-15T03:59:59Z,42.805,6.029,13.2979,4.59978,2470.227,2020-10-15T06:00:53Z
2020-10-15T04:03:02Z,42.805,6.029,13.2974,4.59978,2470.217,2020-10-15T06:03:56Z
2020-10-15T04:06:05Z,42.805,6.029,13.2979,4.59978,2470.217,2020-10-15T06:06:59Z
2020-10-15T04:09:08Z,42.805,6.029,13.2980,4.59978,2470.227,2020-10-15T06:10:02Z
2020-10-15T04:12:11Z,42.805,6.029,13.2976,4.59978,2470.227,2020-10-15T06:13:05Z
2020-10-15T04:15:14Z,42.805,6.029,13.2977,4.59978,2470.24,2020-10-15T06:16:08Z
2020-10-15T04:18:18Z,42.805,6.029,13.2976,4.59977,2470.194,2020-10-15T06:19:12Z
2020-10-15T04:21:21Z,42.805,6.029,13.2976,4.59978,2470.217,2020-10-15T06:22:15Z
2020-10-15T04:24:24Z,42.805,6.029,13.2975,4.59978,2470.217,2020-10-15T06:25:18Z
2020-10-15T04:27:27Z,42.805,6.029,13.2980,4.59979,2470.227,2020-10-15T06:28:21Z
2020-10-15T04:30:30Z,42.805,6.029,13.2974,4.59978,2470.217,2020-10-15T06:31:24Z
2020-10-15T04:33:33Z,42.805,6.029,13.2978,4.59978,2470.227,2020-10-15T06:34:27Z
2020-10-15T04:36:36Z,42.805,6.029,13.2979,4.59979,2470.217,2020-10-15T06:37:30Z
2020-10-15T04:39:39Z,42.805,6.029,13.2978,4.59980,2470.25,2020-10-15T06:40:33Z
2020-10-15T04:42:43Z,42.805,6.029,13.2977,4.59978,2470.203,2020-10-15T06:43:37Z
2020-10-15T04:45:46Z,42.805,6.029,13.2977,4.59978,2470.227,2020-10-15T06:46:40Z
2020-10-15T04:48:49Z,42.805,6.029,13.2978,4.59978,2470.203,2020-10-15T06:49:43Z
2020-10-15T04:51:52Z,42.805,6.029,13.2979,4.59978,2470.227,2020-10-15T06:52:46Z
2020-10-15T04:54:55Z,42.805,6.029,13.2977,4.59978,2470.25,2020-10-15T06:55:49Z
2020-10-15T04:57:58Z,42.805,6.029,13.2975,4.59978,2470.227,2020-10-15T06:58:52Z
2020-10-15T05:01:01Z,42.805,6.029,13.2977,4.59979,2470.264,2020-10-15T07:01:55Z
2020-10-15T05:04:04Z,42.805,6.029,13.2979,4.59979,2470.227,2020-10-15T07:04:58Z
2020-10-15T05:07:08Z,42.805,6.029,13.2978,4.59979,2470.227,2020-10-15T07:08:02Z
2020-10-15T05:10:11Z,42.805,6.029,13.2979,4.59981,2470.203,2020-10-15T07:11:05Z
2020-10-15T05:13:14Z,42.805,6.029,13.2974,4.59980,2470.25,2020-10-15T07:14:08Z
2020-10-15T05:16:17Z,42.805,6.029,13.2976,4.59980,2470.264,2020-10-15T07:17:11Z
2020-10-15T05:19:20Z,42.805,6.029,13.2977,4.59981,2470.24,2020-10-15T07:20:14Z
2020-10-15T05:22:23Z,42.805,6.029,13.2976,4.59980,2470.203,2020-10-15T07:23:17Z
2020-10-15T05:25:26Z,42.805,6.029,13.2980,4.59979,2470.25,2020-10-15T07:26:20Z
2020-10-15T05:28:29Z,42.805,6.029,13.2979,4.59979,2470.227,2020-10-15T07:29:23Z
2020-10-15T05:31:33Z,42.805,6.029,13.2986,4.59979,2470.25,2020-10-15T07:32:27Z
2020-10-15T05:34:36Z,42.805,6.029,13.2977,4.59980,2470.203,2020-10-15T07:35:30Z
2020-10-15T05:37:39Z,42.805,6.029,13.2979,4.59981,2470.264,2020-10-15T07:38:33Z
2020-10-15T05:40:42Z,42.805,6.029,13.2978,4.59980,2470.25,2020-10-15T07:41:36Z
2020-10-15T05:43:45Z,42.805,6.029,13.2973,4.59980,2470.227,2020-10-15T07:44:39Z
2020-10-15T05:46:48Z,42.805,6.029,13.2976,4.59980,2470.264,2020-10-15T07:47:42Z
2020-10-15T05:49:51Z,42.805,6.029,13.2976,4.59981,2470.264,2020-10-15T07:50:45Z
2020-10-15T05:52:54Z,42.805,6.029,13.2977,4.59979,2470.25,2020-10-15T07:53:48Z
2020-10-15T05:55:58Z,42.805,6.029,13.2979,4.59980,2470.24,2020-10-15T07:56:52Z
2020-10-15T05:59:01Z,42.805,6.029,13.2982,4.59983,2470.264,2020-10-15T07:59:55Z
2020-10-15T06:02:04Z,42.805,6.029,13.2975,4.59979,2470.25,2020-10-15T08:02:58Z
2020-10-15T06:05:07Z,42.805,6.029,13.2976,4.59980,2470.25,2020-10-15T08:06:01Z
2020-10-15T06:08:10Z,42.805,6.029,13.2978,4.59980,2470.25,2020-10-15T08:09:04Z
2020-10-15T06:11:13Z,42.805,6.029,13.2976,4.59981,2470.264,2020-10-15T08:12:07Z
2020-10-15T06:14:16Z,42.805,6.029,13.2977,4.59980,2470.213,2020-10-15T08:15:10Z
2020-10-15T06:17:19Z,42.805,6.029,13.2978,4.59981,2470.227,2020-10-15T08:18:13Z
2020-10-15T06:20:23Z,42.805,6.029,13.2979,4.59980,2470.287,2020-10-15T08:21:17Z
2020-10-15T06:23:26Z,42.805,6.029,13.2976,4.59980,2470.273,2020-10-15T08:24:20Z
2020-10-15T06:26:29Z,42.805,6.029,13.2978,4.59979,2470.25,2020-10-15T08:27:23Z
2020-10-15T06:29:32Z,42.805,6.029,13.2977,4.59982,2470.273,2020-10-15T08:30:26Z
2020-10-15T06:32:35Z,42.805,6.029,13.2981,4.59980,2470.217,2020-10-15T08:33:29Z
2020-10-15T06:35:38Z,42.805,6.029,13.2976,4.59981,2470.203,2020-10-15T08:36:32Z
2020-10-15T06:38:41Z,42.805,6.029,13.2981,4.59981,2470.203,2020-10-15T08:39:35Z
2020-10-15T06:41:44Z,42.805,6.029,13.2977,4.59981,2470.227,2020-10-15T08:42:38Z
2020-10-15T06:44:47Z,42.805,6.029,13.2977,4.59979,2470.25,2020-10-15T08:45:42Z
2020-10-15T06:47:51Z,42.805,6.029,13.2983,4.59979,2470.264,2020-10-15T08:48:45Z
2020-10-15T06:50:54Z,42.805,6.029,13.2981,4.59982,2470.203,2020-10-15T08:51:48Z
2020-10-15T06:53:57Z,42.805,6.029,13.2977,4.59981,2470.25,2020-10-15T08:54:51Z
2020-10-15T06:57:00Z,42.805,6.029,13.2980,4.59980,2470.25,2020-10-15T08:57:54Z
2020-10-15T07:00:03Z,42.805,6.029,13.2980,4.59981,2470.273,2020-10-15T09:00:57Z
2020-10-15T07:03:06Z,42.805,6.029,13.2977,4.59980,2470.24,2020-10-15T09:04:00Z
2020-10-15T07:06:09Z,42.805,6.029,13.2979,4.59979,2470.227,2020-10-15T09:07:03Z
2020-10-15T07:09:12Z,42.805,6.029,13.2979,4.59981,2470.25,2020-10-15T09:10:06Z
2020-10-15T07:12:16Z,42.805,6.029,13.2979,4.59980,2470.227,2020-10-15T09:13:10Z
2020-10-15T07:15:19Z,42.805,6.029,13.2978,4.59979,2470.24,2020-10-15T09:16:13Z
2020-10-15T07:18:22Z,42.805,6.029,13.2983,4.59980,2470.264,2020-10-15T09:19:16Z
2020-10-15T07:21:25Z,42.805,6.029,13.2979,4.59979,2470.24,2020-10-15T09:22:19Z
2020-10-15T07:24:28Z,42.805,6.029,13.2977,4.59979,2470.25,2020-10-15T09:25:22Z
2020-10-15T07:27:31Z,42.805,6.029,13.2980,4.59980,2470.203,2020-10-15T09:28:25Z
2020-10-15T07:30:34Z,42.805,6.029,13.2976,4.59980,2470.203,2020-10-15T09:31:28Z
2020-10-15T07:33:37Z,42.805,6.029,13.2976,4.59980,2470.24,2020-10-15T09:34:31Z
2020-10-15T07:36:41Z,42.805,6.029,13.2979,4.59980,2470.227,2020-10-15T09:37:35Z
2020-10-15T07:39:44Z,42.805,6.029,13.2972,4.59981,2470.18,2020-10-15T09:40:38Z
2020-10-15T07:42:47Z,42.805,6.029,13.2978,4.59979,2470.203,2020-10-15T09:43:41Z
2020-10-15T07:45:50Z,42.805,6.029,13.2979,4.59979,2470.227,2020-10-15T09:46:44Z
2020-10-15T07:48:53Z,42.805,6.029,13.2977,4.59982,2470.227,2020-10-15T09:49:47Z
2020-10-15T07:51:56Z,42.805,6.029,13.2983,4.59980,2470.217,2020-10-15T09:52:50Z
2020-10-15T07:54:59Z,42.805,6.029,13.2978,4.59980,2470.203,2020-10-15T09:55:53Z
2020-10-15T07:58:02Z,42.805,6.029,13.2976,4.59981,2470.24,2020-10-15T09:58:56Z
2020-10-15T08:01:06Z,42.805,6.029,13.2979,4.59981,2470.18,2020-10-15T10:02:00Z
2020-10-15T08:04:09Z,42.805,6.029,13.2976,4.59981,2470.203,2020-10-15T10:05:03Z
2020-10-15T08:07:12Z,42.805,6.029,13.2979,4.59980,2470.217,2020-10-15T10:08:06Z
2020-10-15T08:10:15Z,42.805,6.029,13.2979,4.59981,2470.156,2020-10-15T10:11:09Z
2020-10-15T08:13:18Z,42.805,6.029,13.2982,4.59980,2470.171,2020-10-15T10:14:12Z
2020-10-15T08:16:21Z,42.805,6.029,13.2978,4.59980,2470.217,2020-10-15T10:17:15Z
2020-10-15T08:19:24Z,42.805,6.029,13.2980,4.59979,2470.18,2020-10-15T10:20:18Z
2020-10-15T08:22:27Z,42.805,6.029,13.2980,4.59979,2470.18,2020-10-15T10:23:21Z
2020-10-15T08:25:30Z,42.805,6.029,13.2978,4.59980,2470.156,2020-10-15T10:26:25Z
2020-10-15T08:28:34Z,42.805,6.029,13.2977,4.59979,2470.18,2020-10-15T10:29:28Z
2020-10-15T08:31:37Z,42.805,6.029,13.2979,4.59981,2470.203,2020-10-15T10:32:31Z
2020-10-15T08:34:40Z,42.805,6.029,13.2978,4.59981,2470.171,2020-10-15T10:35:34Z
2020-10-15T08:37:43Z,42.805,6.029,13.2976,4.59981,2470.18,2020-10-15T10:38:37Z
2020-10-15T08:40:46Z,42.805,6.029,13.2980,4.59980,2470.194,2020-10-15T10:41:40Z
2020-10-15T08:43:49Z,42.805,6.029,13.2977,4.59981,2470.171,2020-10-15T10:44:43Z
2020-10-15T08:46:52Z,42.805,6.029,13.2976,4.59981,2470.194,2020-10-15T10:47:46Z
2020-10-15T08:49:55Z,42.805,6.029,13.2977,4.59980,2470.133,2020-10-15T10:50:50Z
2020-10-15T08:52:59Z,42.805,6.029,13.2974,4.59978,2470.143,2020-10-15T10:53:53Z
2020-10-15T08:56:02Z,42.805,6.029,13.2976,4.59980,2470.171,2020-10-15T10:56:56Z
2020-10-15T08:59:05Z,42.805,6.029,13.2976,4.59980,2470.18,2020-10-15T10:59:59Z
2020-10-15T09:02:08Z,42.805,6.029,13.2978,4.59980,2470.11,2020-10-15T11:03:02Z
2020-10-15T09:05:11Z,42.805,6.029,13.2976,4.59978,2470.18,2020-10-15T11:06:05Z
2020-10-15T09:08:14Z,42.805,6.029,13.2979,4.59981,2470.18,2020-10-15T11:09:08Z
2020-10-15T09:11:17Z,42.805,6.029,13.2978,4.59979,2470.171,2020-10-15T11:12:11Z
2020-10-15T09:14:21Z,42.805,6.029,13.2981,4.59981,2470.133,2020-10-15T11:15:15Z
2020-10-15T09:17:24Z,42.805,6.029,13.2974,4.59981,2470.119,2020-10-15T11:18:18Z
2020-10-15T09:20:27Z,42.805,6.029,13.2979,4.59979,2470.171,2020-10-15T11:21:21Z
2020-10-15T09:23:30Z,42.805,6.029,13.2980,4.59980,2470.147,2020-10-15T11:24:24Z
2020-10-15T09:26:33Z,42.805,6.029,13.2976,4.59982,2470.133,2020-10-15T11:27:27Z
2020-10-15T09:29:36Z,42.805,6.029,13.2978,4.59979,2470.147,2020-10-15T11:30:30Z
2020-10-15T09:32:39Z,42.805,6.029,13.2979,4.59980,2470.133,2020-10-15T11:33:33Z
2020-10-15T09:35:42Z,42.805,6.029,13.2975,4.59979,2470.147,2020-10-15T11:36:36Z
2020-10-15T09:38:46Z,42.805,6.029,13.2977,4.59981,2470.133,2020-10-15T11:39:40Z
2020-10-15T09:41:49Z,42.805,6.029,13.2979,4.59980,2470.11,2020-10-15T11:42:43Z
2020-10-15T09:44:52Z,42.805,6.029,13.2981,4.59981,2470.156,2020-10-15T11:45:46Z
2020-10-15T09:47:55Z,42.805,6.029,13.2974,4.59980,2470.147,2020-10-15T11:48:49Z
2020-10-15T09:50:58Z,42.805,6.029,13.2976,4.59979,2470.133,2020-10-15T11:51:52Z
2020-10-15T09:54:01Z,42.805,6.029,13.2979,4.59981,2470.11,2020-10-15T11:54:55Z
2020-10-15T09:57:04Z,42.805,6.029,13.2979,4.59983,2470.11,2020-10-15T11:57:58Z
2020-10-15T10:00:07Z,42.805,6.029,13.2976,4.59980,2470.11,2020-10-15T12:01:02Z
2020-10-15T10:03:11Z,42.805,6.029,13.2976,4.59982,2470.147,2020-10-15T12:04:05Z
2020-10-15T10:06:14Z,42.805,6.029,13.2977,4.59980,2470.124,2020-10-15T12:07:08Z
2020-10-15T10:09:17Z,42.805,6.029,13.2976,4.59979,2470.087,2020-10-15T12:10:11Z
2020-10-15T10:12:20Z,42.805,6.029,13.2978,4.59980,2470.11,2020-10-15T12:13:14Z
2020-10-15T10:15:23Z,42.805,6.029,13.2979,4.59981,2470.087,2020-10-15T12:16:17Z
2020-10-15T10:18:26Z,42.805,6.029,13.2979,4.59981,2470.124,2020-10-15T12:19:20Z
2020-10-15T10:21:29Z,42.805,6.029,13.2979,4.59979,2470.11,2020-10-15T12:22:23Z
2020-10-15T10:24:32Z,42.805,6.029,13.2982,4.59979,2470.1,2020-10-15T12:25:27Z
2020-10-15T10:27:36Z,42.805,6.029,13.2977,4.59979,2470.1,2020-10-15T12:28:30Z
2020-10-15T10:30:39Z,42.805,6.029,13.2977,4.59980,2470.133,2020-10-15T12:31:33Z
2020-10-15T10:33:42Z,42.805,6.029,13.2979,4.59981,2470.087,2020-10-15T12:34:36Z
2020-10-15T10:36:45Z,42.805,6.029,13.2975,4.59981,2470.087,2020-10-15T12:37:39Z
2020-10-15T10:39:48Z,42.805,6.029,13.2976,4.59980,2470.1,2020-10-15T12:40:42Z
2020-10-15T10:42:51Z,42.805,6.029,13.2974,4.59979,2470.077,2020-10-15T12:43:45Z
2020-10-15T10:45:54Z,42.805,6.029,13.2976,4.59979,2470.063,2020-10-15T12:46:48Z
2020-10-15T10:48:58Z,42.805,6.029,13.2982,4.59980,2470.087,2020-10-15T12:49:52Z
2020-10-15T10:52:01Z,42.805,6.029,13.2977,4.59979,2470.1,2020-10-15T12:52:55Z
2020-10-15T10:55:04Z,42.805,6.029,13.2975,4.59981,2470.11,2020-10-15T12:55:58Z
2020-10-15T10:58:07Z,42.805,6.029,13.2977,4.59981,2470.087,2020-10-15T12:59:01Z
2020-10-15T11:01:10Z,42.805,6.029,13.2979,4.59981,2470.063,2020-10-15T13:02:04Z
2020-10-15T11:04:13Z,42.805,6.029,13.2979,4.59981,2470.087,2020-10-15T13:05:07Z
2020-10-15T11:07:16Z,42.805,6.029,13.2976,4.59983,2470.073,2020-10-15T13:08:10Z
2020-10-15T11:10:19Z,42.805,6.029,13.2977,4.59979,2470.087,2020-10-15T13:11:13Z
2020-10-15T11:13:23Z,42.805,6.029,13.2978,4.59979,2470.077,2020-10-15T13:14:17Z
2020-10-15T11:16:26Z,42.805,6.029,13.2981,4.59979,2470.087,2020-10-15T13:17:20Z
2020-10-15T11:19:29Z,42.805,6.029,13.2979,4.59979,2470.077,2020-10-15T13:20:23Z
2020-10-15T11:22:32Z,42.805,6.029,13.2979,4.59980,2470.1,2020-10-15T13:23:26Z
2020-10-15T11:25:35Z,42.805,6.029,13.2982,4.59981,2470.063,2020-10-15T13:26:29Z
2020-10-15T11:28:38Z,42.805,6.029,13.2979,4.59980,2470.077,2020-10-15T13:29:32Z
2020-10-15T11:31:41Z,42.805,6.029,13.2978,4.59981,2470.04,2020-10-15T13:32:35Z
2020-10-15T11:34:44Z,42.805,6.029,13.2979,4.59979,2470.087,2020-10-15T13:35:38Z
2020-10-15T11:37:48Z,42.805,6.029,13.2980,4.59981,2470.124,2020-10-15T13:38:42Z
2020-10-15T11:40:51Z,42.805,6.029,13.2976,4.59981,2470.063,2020-10-15T13:41:45Z
2020-10-15T11:43:54Z,42.805,6.029,13.2979,4.59980,2470.063,2020-10-15T13:44:48Z
2020-10-15T11:46:57Z,42.805,6.029,13.2979,4.59981,2470.063,2020-10-15T13:47:51Z
2020-10-15T11:50:00Z,42.805,6.029,13.2979,4.59981,2470.04,2020-10-15T13:50:54Z
2020-10-15T11:53:03Z,42.805,6.029,13.2979,4.59981,2470.063,2020-10-15T13:53:57Z
2020-10-15T11:56:06Z,42.805,6.029,13.2976,4.59980,2470.077,2020-10-15T13:57:00Z
2020-10-15T11:59:09Z,42.805,6.029,13.2979,4.59980,2470.063,2020-10-15T14:00:04Z
2020-10-15T12:02:13Z,42.805,6.029,13.2979,4.59980,2470.04,2020-10-15T14:03:07Z
2020-10-15T12:05:16Z,42.805,6.029,13.2981,4.59981,2470.04,2020-10-15T14:06:10Z
2020-10-15T12:08:19Z,42.805,6.029,13.2975,4.59979,2470.063,2020-10-15T14:09:13Z
2020-10-15T12:11:22Z,42.805,6.029,13.2975,4.59980,2470.04,2020-10-15T14:12:16Z
2020-10-15T12:14:25Z,42.805,6.029,13.2976,4.59980,2470.04,2020-10-15T14:15:19Z
2020-10-15T12:17:28Z,42.805,6.029,13.2979,4.59979,2470.053,2020-10-15T14:18:22Z
2020-10-15T12:20:31Z,42.805,6.029,13.2979,4.59979,2470.087,2020-10-15T14:21:25Z
2020-10-15T12:23:34Z,42.805,6.029,13.2981,4.59981,2470.053,2020-10-15T14:24:29Z
2020-10-15T12:26:38Z,42.805,6.029,13.2976,4.59979,2470.077,2020-10-15T14:27:32Z
2020-10-15T12:29:41Z,42.805,6.029,13.2979,4.59981,2470.063,2020-10-15T14:30:35Z
2020-10-15T12:32:44Z,42.805,6.029,13.2981,4.59980,2470.04,2020-10-15T14:33:38Z
2020-10-15T12:35:47Z,42.805,6.029,13.2974,4.59980,2470.04,2020-10-15T14:36:41Z
2020-10-15T12:38:50Z,42.805,6.029,13.2980,4.59980,2470.04,2020-10-15T14:39:44Z
2020-10-15T12:41:53Z,42.805,6.029,13.2978,4.59981,2470.017,2020-10-15T14:42:47Z
2020-10-15T12:44:56Z,42.805,6.029,13.2977,4.59980,2470.04,2020-10-15T14:45:50Z
2020-10-15T12:47:59Z,42.805,6.029,13.2979,4.59980,2470.077,2020-10-15T14:48:54Z
2020-10-15T12:51:03Z,42.805,6.029,13.2980,4.59980,2470.03,2020-10-15T14:51:57Z
2020-10-15T12:54:06Z,42.805,6.029,13.2980,4.59980,2470.053,2020-10-15T14:55:00Z
2020-10-15T12:57:09Z,42.805,6.029,13.2978,4.59981,2470.04,2020-10-15T14:58:03Z
2020-10-15T13:00:12Z,42.805,6.029,13.2979,4.59979,2470.063,2020-10-15T15:01:06Z
2020-10-15T13:03:15Z,42.805,6.029,13.2974,4.59979,2470.026,2020-10-15T15:04:09Z
2020-10-15T13:06:18Z,42.805,6.029,13.2979,4.59981,2470.063,2020-10-15T15:07:12Z
2020-10-15T13:09:21Z,42.805,6.029,13.2978,4.59981,2470.04,2020-10-15T15:10:15Z
2020-10-15T13:12:24Z,42.805,6.029,13.2976,4.59980,2470.087,2020-10-15T15:13:19Z
2020-10-15T13:15:28Z,42.805,6.029,13.2976,4.59981,2470.077,2020-10-15T15:16:22Z
2020-10-15T13:18:31Z,42.805,6.029,13.2979,4.59981,2470.063,2020-10-15T15:19:25Z
2020-10-15T13:21:34Z,42.805,6.029,13.2977,4.59980,2470.053,2020-10-15T15:22:28Z
2020-10-15T13:24:37Z,42.805,6.029,13.2980,4.59980,2470.087,2020-10-15T15:25:31Z
2020-10-15T13:27:40Z,42.805,6.029,13.2979,4.59979,2470.077,2020-10-15T15:28:34Z
2020-10-15T13:30:43Z,42.805,6.029,13.2982,4.59980,2470.063,2020-10-15T15:31:37Z
2020-10-15T13:33:46Z,42.805,6.029,13.2978,4.59980,2470.063,2020-10-15T15:34:40Z
2020-10-15T13:36:50Z,42.805,6.029,13.2985,4.59979,2470.1,2020-10-15T15:37:44Z
2020-10-15T13:39:53Z,42.805,6.029,13.2980,4.59981,2470.087,2020-10-15T15:40:47Z
2020-10-15T13:42:56Z,42.805,6.029,13.2979,4.59980,2470.1,2020-10-15T15:43:50Z
2020-10-15T13:45:59Z,42.805,6.029,13.2977,4.59981,2470.077,2020-10-15T15:46:53Z
2020-10-15T13:49:02Z,42.805,6.029,13.2976,4.59981,2470.1,2020-10-15T15:49:56Z
2020-10-15T13:52:05Z,42.805,6.029,13.2982,4.59981,2470.087,2020-10-15T15:52:59Z
2020-10-15T13:55:08Z,42.805,6.029,13.2977,4.59980,2470.087,2020-10-15T15:56:02Z
2020-10-15T13:58:11Z,42.805,6.029,13.2978,4.59981,2470.11,2020-10-15T15:59:05Z
2020-10-15T14:01:15Z,42.805,6.029,13.2977,4.59980,2470.087,2020-10-15T16:02:09Z
2020-10-15T14:04:18Z,42.805,6.029,13.2983,4.59981,2470.11,2020-10-15T16:05:12Z
2020-10-15T14:07:21Z,42.805,6.029,13.2979,4.59981,2470.087,2020-10-15T16:08:15Z
2020-10-15T14:10:24Z,42.805,6.029,13.2982,4.59981,2470.11,2020-10-15T16:11:18Z
2020-10-15T14:13:27Z,42.805,6.029,13.2982,4.59983,2470.11,2020-10-15T16:14:21Z
2020-10-15T14:16:30Z,42.805,6.029,13.2978,4.59981,2470.11,2020-10-15T16:17:24Z
2020-10-15T14:19:33Z,42.805,6.029,13.2982,4.59980,2470.11,2020-10-15T16:20:27Z
2020-10-15T14:22:36Z,42.805,6.029,13.2980,4.59980,2470.11,2020-10-15T16:23:30Z
2020-10-15T14:25:40Z,42.805,6.029,13.2977,4.59980,2470.087,2020-10-15T16:26:34Z
2020-10-15T14:28:43Z,42.805,6.029,13.2977,4.59981,2470.087,2020-10-15T16:29:37Z
2020-10-15T14:31:46Z,42.805,6.029,13.2979,4.59982,2470.133,2020-10-15T16:32:40Z
2020-10-15T14:34:49Z,42.805,6.029,13.2978,4.59980,2470.11,2020-10-15T16:35:43Z
2020-10-15T14:37:52Z,42.805,6.029,13.2979,4.59981,2470.11,2020-10-15T16:38:46Z
2020-10-15T14:40:55Z,42.805,6.029,13.2977,4.59981,2470.147,2020-10-15T16:41:49Z
2020-10-15T14:43:58Z,42.805,6.029,13.2979,4.59981,2470.133,2020-10-15T16:44:52Z
2020-10-15T14:47:01Z,42.805,6.029,13.2982,4.59983,2470.156,2020-10-15T16:47:56Z
2020-10-15T14:50:05Z,42.805,6.029,13.2978,4.59981,2470.133,2020-10-15T16:50:59Z
2020-10-15T14:53:08Z,42.805,6.029,13.2980,4.59983,2470.194,2020-10-15T16:54:02Z
2020-10-15T14:56:11Z,42.805,6.029,13.2981,4.59980,2470.133,2020-10-15T16:57:05Z
2020-10-15T14:59:14Z,42.805,6.029,13.2979,4.59981,2470.119,2020-10-15T17:00:08Z
2020-10-15T15:02:17Z,42.805,6.029,13.2982,4.59982,2470.147,2020-10-15T17:03:11Z